www.pogodaiklimat.ru

Погода и климат >> Архив погоды >> Бразилия >> Sao Romao


ПОГОДА в Sao Romao

  • Прогноз погоды в Sao Romao
  • Монитор погоды в Sao Romao
  • Климат города

АРХИВ ПОГОДЫ в Sao Romao

Время (UTC), дата Ветер
(напр.,м/с)
 
Видим.   Явления Облачность Т
(С)
Тd
(С)
f
(%)
Тe
(С)
Тes
(С)
Комфортность P
(гПа)
Po
(гПа)
Тmin
(С)
Tmax
(С)
R
(мм)
R24
(мм)
S
(см)
11 9.10 СВ 1
{2}
н/о н/о +27.8 +13.3 41 +30 +30 жарко 1014.3 959.4
10 9.10 штиль 0
{1}
н/о н/о +23.6 +13.2 52 +26 +26 жарко 1014.4 958.7
12 9.10
{2}
н/о н/о +30.4 +14.3 38 1014.1 959.6
13 9.10 СВ 3
{6}
н/о н/о +34.3 +13.4 28 +35 +35 очень
жарко
1012.8 959.1
14 9.10 С 3
{6}
н/о н/о +33.9 +12.8 28 +34 +34 очень
жарко
1012.4 958.6
15 9.10 С 2
{6}
н/о н/о +35.9 +12.3 24 +36 +36 очень
жарко
1011.0 957.6
17 9.10 СВ 2
{4}
н/о н/о +38.2 +12.0 21 +38 +38 очень
жарко
1007.6 954.8
16 9.10 СВ 2
{4}
н/о н/о +37.4 +12.1 22 +37 +37 очень
жарко
1009.1 956.1
18 9.10 В 1
{3}
н/о н/о +38.6 +11.1 19 +38 +38 очень
жарко
1006.4 953.7
19 9.10 СВ 1
{3}
н/о н/о +37.6 +10.1 19 +36 +36 очень
жарко
1005.8 953.0
20 9.10 В 1
{3}
н/о н/о +36.7 +10.5 21 +36 +36 очень
жарко
1005.8 952.8
21 9.10 штиль 0
{1}
н/о н/о +31.3 +11.5 30 +32 +32 жарко 1006.8 952.9
23 9.10 штиль 0
{1}
н/о н/о +25.9 +14.3 49 +28 +28 жарко 1009.0 954.0
22 9.10 штиль 0
{1}
н/о н/о +29.3 +13.8 39 +31 +31 жарко 1007.7 953.4
00 10.10 штиль 0
{2}
н/о н/о +25.8 +16.0 55 +29 +29 душно 1009.7 954.7
01 10.10 В 1
{2}
н/о н/о +26.4 +14.2 47 +29 +29 жарко 1010.5 955.5
02 10.10 В 1
{2}
н/о н/о +26.6 +14.0 46 +29 +29 жарко 1010.1 955.2
03 10.10 В 1
{2}
н/о н/о +26.5 +13.8 46 +29 +29 жарко 1009.6 954.7
05 10.10 ЮЗ 1
{2}
н/о н/о +24.6 +15.0 55 +27 +27 жарко 1009.8 954.5
04 10.10 штиль 0
{1}
н/о н/о +24.5 +16.3 60 +28 +28 душно 1009.5 954.2
06 10.10 штиль 0
{1}
н/о н/о +22.9 +15.5 63 +27 +27 душно 1010.4 954.8
07 10.10 штиль 0
{1}
н/о н/о +22.7 +14.6 60 +26 +26 жарко 1011.0 955.3
08 10.10 штиль 0
{1}
н/о н/о +21.1 +14.2 65 +24 +24 комфорт 1011.6 955.6
09 10.10 штиль 0
{1}
н/о н/о +21.3 +14.7 66 +24 +24 комфорт 1012.5 956.5
11 10.10 С 1
{2}
н/о н/о +27.4 +14.5 45 +30 +30 жарко 1013.3 958.3
10 10.10 штиль 0 н/о н/о +23.5 +16.1 63 +27 +27 душно 1012.8 957.2
12 10.10 СВ 2
{4}
н/о н/о +30.0 +8.9 27 +29 +29 жарко 1013.0 958.5
13 10.10 СВ 2
{4}
н/о н/о +33.6 +7.9 20 +32 +32 жарко 1012.1 958.3
14 10.10 СВ 2
{4}
н/о н/о +35.3 +7.8 18 +33 +33 жарко 1011.2 957.7
15 10.10 С 2
{4}
н/о н/о +36.5 +8.1 18 +35 +35 очень
жарко
1009.9 956.7
17 10.10 С 1
{4}
н/о н/о +36.8 +7.4 17 +35 +35 очень
жарко
1007.3 954.3
16 10.10 СВ 2
{4}
н/о н/о +38.2 +7.3 15 +36 +36 очень
жарко
1008.1 955.3
18 10.10 С 1
{4}
н/о н/о +38.2 +8.2 16 +36 +36 очень
жарко
1006.2 953.5
19 10.10 З 1
{3}
н/о н/о +37.1 +7.9 17 +35 +35 очень
жарко
1006.0 953.1
20 10.10 штиль 0
{3}
н/о н/о +37.3 +8.1 17 +35 +35 очень
жарко
1005.8 952.9
21 10.10 штиль 0
{1}
н/о н/о +32.2 +10.3 26 +32 +32 жарко 1006.8 953.0
23 10.10 В 1
{2}
н/о н/о +25.7 +14.0 48 +28 +28 жарко 1009.6 954.5
22 10.10 штиль 0 н/о н/о +28.5 +13.0 38 +30 +30 жарко 1008.0 953.5
00 11.10 В 1
{2}
н/о н/о +26.9 +9.3 33 +27 +27 жарко 1010.0 955.1
01 11.10 В 1
{1}
н/о н/о +26.3 +10.6 37 +27 +27 жарко 1010.7 955.7
02 11.10 штиль 0
{1}
н/о н/о +26.7 +11.2 38 +28 +28 жарко 1010.8 955.9
03 11.10 штиль 0
{1}
н/о н/о +26.0 +13.9 47 +28 +28 жарко 1010.7 955.6
05 11.10 ЮЗ 1
{2}
н/о н/о +23.5 +11.2 46 +25 +25 комфорт 1011.5 955.9
04 11.10 штиль 0
{1}
н/о н/о +22.8 +14.1 58 +26 +26 жарко 1011.4 955.7
06 11.10 ЮЗ 1
{2}
н/о н/о +20.5 +12.8 61 +24 +24 комфорт 1012.0 955.9
07 11.10 В 1
{2}
н/о н/о +17.8 +12.8 73 +19 +19 1012.6 955.9
08 11.10 штиль 0
{2}
н/о н/о +17.9 +13.3 74 +18 +18 1013.2 956.5
09 11.10 С 1
{1}
н/о н/о +17.5 +13.5 77 +19 +19 1014.2 957.4
11 11.10 СВ 1
{2}
н/о н/о +27.9 +9.3 31 +28 +28 жарко 1013.8 958.9
10 11.10 штиль 0
{1}
н/о н/о +22.7 +13.7 57 +26 +26 жарко 1014.5 958.6
12 11.10 СВ 1
{3}
н/о н/о +31.1 +8.8 25 +30 +30 жарко 1013.5 959.2
13 11.10 СВ 1
{3}
н/о н/о +33.3 +8.8 22 +32 +32 жарко 1012.9 959.0
14 11.10 СВ 1
{4}
н/о н/о +35.8 +7.9 18 +34 +34 очень
жарко
1011.8 958.4
15 11.10 СВ 1
{4}
н/о н/о +36.8 +7.3 16 +34 +34 очень
жарко
1010.5 957.3
17 11.10 ЮВ 2
{4}
н/о н/о +38.9 +7.2 15 +37 +37 очень
жарко
1007.2 954.5
16 11.10
{3}
н/о н/о +37.7 +7.6 16 1008.8 955.9
18 11.10 С 1
{3}
н/о н/о +39.1 +7.4 15 +37 +37 очень
жарко
1006.2 953.6
19 11.10 В 1
{4}
н/о н/о +38.1 +6.7 15 +36 +36 очень
жарко
1005.9 953.2
20 11.10 В 1
{3}
н/о н/о +37.5 +7.4 16 +35 +35 очень
жарко
1005.9 953.1
21 11.10 В 1
{2}
н/о н/о +34.1 +9.5 22 +33 +33 жарко 1007.1 953.6
23 11.10 штиль 0
{1}
н/о н/о +29.8 +12.1 34 +31 +31 жарко 1009.4 955.1
22 11.10 В 1
{3}
н/о н/о +31.4 +10.1 27 +31 +31 жарко 1008.1 954.1
00 12.10 В 1
{1}
н/о н/о +28.7 +10.7 33 +29 +29 жарко 1010.3 955.7
01 12.10 В 2
{3}
н/о н/о +30.8 +8.0 24 +30 +30 жарко 1010.3 956.1
02 12.10 В 1
{3}
н/о н/о +30.3 +7.3 24 +29 +29 жарко 1010.7 956.4
03 12.10 СВ 1
{2}
н/о н/о +27.6 +8.5 30 +27 +27 жарко 1011.3 956.5
05 12.10 В 1
{2}
н/о н/о +23.1 +9.4 42 +25 +25 комфорт 1011.6 956.0
04 12.10 В 1
{3}
н/о н/о +24.3 +7.1 33 +24 +24 комфорт 1011.7 956.3
06 12.10 штиль 0
{1}
н/о н/о +21.7 +11.0 51 +24 +24 комфорт 1012.0 956.1
07 12.10 В 1
{1}
н/о н/о +20.2 +10.7 54 +23 +23 комфорт 1012.5 956.3
08 12.10 штиль 0
{1}
н/о н/о +20.5 +12.2 59 +22 +22 комфорт 1013.2 957.0
09 12.10 штиль 0
{1}
н/о н/о +21.6 +13.8 61 +24 +24 комфорт 1014.2 958.1
11 12.10 В 1
{2}
н/о н/о +29.4 +14.4 40 +31 +31 жарко 1015.0 960.3
10 12.10 штиль 0
{1}
н/о н/о +25.0 +14.2 51 +27 +27 жарко 1014.9 959.4
12 12.10 В 2
{4}
н/о н/о +31.7 +13.7 33 +33 +33 жарко 1014.6 960.3
13 12.10 В 2
{5}
н/о н/о +33.6 +13.8 30 +35 +35 душно 1013.9 960.0
14 12.10 В 2
{5}
н/о н/о +35.0 +13.8 28 +36 +36 очень
жарко
1013.0 959.4
15 12.10 В 1
{5}
н/о н/о +36.6 +13.0 24 +37 +37 очень
жарко
1011.4 958.1
17 12.10 В 2
{4}
н/о н/о +39.2 +11.6 19 +38 +38 очень
жарко
1008.4 955.7
16 12.10 В 2
{4}
н/о н/о +37.1 +12.2 22 +37 +37 очень
жарко
1009.7 956.6
18 12.10 В 1
{4}
н/о н/о +37.6 +12.1 22 +37 +37 очень
жарко
1008.0 955.1
19 12.10 В 1
{3}
н/о н/о +37.6 +12.1 22 +37 +37 очень
жарко
1007.9 955.0
20 12.10 Ю 1
{3}
н/о н/о +34.2 +13.0 28 +35 +35 очень
жарко
1008.9 955.4
21 12.10 З 1
{3}
н/о н/о +28.6 +19.3 57 +34 +34 очень
душно
1010.3 955.7 0.6
23 12.10 В 1
{2}
н/о н/о +27.0 +21.3 71 +34 +34 очень
душно
1011.7 956.8
22 12.10 В 1
{2}
н/о н/о +26.3 +21.7 76 +34 +34 очень
душно
1011.4 956.4
00 13.10 В 2
{3}
н/о н/о +27.0 +16.3 52 +30 +30 душно 1012.8 957.8
01 13.10 В 1
{3}
н/о н/о +26.1 +15.5 52 +29 +29 жарко 1014.0 958.8
02 13.10 В 1
{2}
н/о н/о +24.7 +14.6 53 +27 +27 жарко 1014.2 958.7
03 13.10 В 1
{2}
н/о н/о +24.0 +14.4 55 +27 +27 жарко 1013.8 958.2
05 13.10 ЮЗ 1
{1}
н/о н/о +22.3 +17.1 72 +27 +27 душно 1013.2 957.3
04 13.10 В 1
{2}
н/о н/о +24.2 +14.7 55 +27 +27 жарко 1013.0 957.5
06 13.10 штиль 0
{2}
н/о н/о +22.0 +16.2 70 +26 +26 душно 1013.1 957.2
07 13.10 В 1
{2}
н/о н/о +20.2 +14.7 71 +24 +24 комфорт 1013.8 957.5
08 13.10 В 1
{1}
н/о н/о +20.3 +16.1 77 +25 +25 комфорт 1014.6 958.3
09 13.10 штиль 0
{2}
н/о н/о +20.6 +16.5 77 +24 +24 комфорт 1015.0 958.7
11 13.10 В 2
{3}
н/о н/о +28.8 +16.5 47 +32 +32 душно 1015.0 960.2
10 13.10 В 1
{2}
н/о н/о +26.0 +16.5 56 +30 +30 душно 1014.6 959.3
12 13.10 СВ 2
{3}
н/о н/о +31.1 +16.3 41 +34 +34 душно 1014.4 960.0
13 13.10 С 1
{3}
н/о н/о +33.4 +14.7 32 +35 +35 душно 1013.6 959.7
14 13.10 СЗ 1
{4}
н/о н/о +34.8 +14.9 30 +36 +36 душно 1012.7 959.1
15 13.10 С 2
{3}
н/о н/о +35.4 +14.3 28 +36 +36 очень
жарко
1011.6 958.1
17 13.10 СВ 1
{4}
н/о н/о +36.9 +13.0 24 +37 +37 очень
жарко
1008.4 955.3
16 13.10 СВ 2
{3}
н/о н/о +37.4 +14.0 25 +38 +38 душно 1009.4 956.4
18 13.10 В 1
{3}
н/о н/о +38.0 +12.8 22 +38 +38 очень
жарко
1007.3 954.5
19 13.10 Ю 1
{2}
н/о н/о +37.5 +12.7 23 +37 +37 очень
жарко
1006.8 953.9
20 13.10 З 1
{3}
н/о н/о +36.8 +12.7 24 +37 +37 очень
жарко
1006.9 953.9
21 13.10 З 1
{2}
н/о н/о +35.3 +13.1 26 +36 +36 очень
жарко
1007.3 954.0
23 13.10 ЮВ 1
{2}
н/о н/о +29.5 +16.7 46 +33 +33 душно 1009.3 954.9
22 13.10 штиль 0
{1}
н/о н/о +31.2 +14.9 37 +33 +33 жарко 1008.2 954.2
00 14.10 штиль 0
{2}
н/о н/о +30.7 +17.0 44 +34 +34 очень
душно
1009.5 955.3
01 14.10 ЮВ 1
{3}
н/о н/о +30.8 +16.0 41 +34 +34 очень
душно
1010.4 956.2
02 14.10 СЗ 1
{4}
н/о н/о +25.3 +21.1 78 +32 +32 очень
душно
1011.3 956.1 2
03 14.10 С 1
{2}
н/о н/о +27.3 +19.9 64 +33 +33 очень
душно
1010.3 955.5
05 14.10 В 1
{1}
н/о н/о +23.7 +21.3 86 +30 +30 очень
душно
1009.9 954.5
04 14.10 штиль 0
{2}
н/о н/о +25.6 +19.6 69 +31 +31 очень
душно
1010.4 955.3
06 14.10 штиль 0
{1}
н/о н/о +24.5 +21.9 85 +31 +31 очень
душно
1009.9 954.6
07 14.10 Ю 1
{1}
н/о н/о +24.8 +20.7 78 +31 +31 очень
душно
1010.5 955.2
08 14.10 штиль 0
{1}
н/о н/о +23.3 +20.9 86 +31 +31 очень
душно
1011.0 955.4
09 14.10 З 1
{1}
н/о н/о +24.8 +19.7 73 +30 +30 душно 1011.5 956.2
11 14.10 ЮВ 1
{2}
н/о н/о +31.3 +15.6 39 +34 +34 душно 1011.7 957.5
10 14.10 Ю 1
{1}
н/о н/о +27.6 +19.0 59 +33 +33 очень
душно
1011.8 957.0
12 14.10 СВ 1
{3}
н/о н/о +34.0 +13.6 29 +35 +35 очень
жарко
1010.9 957.2 0.2
13 14.10 СВ 2
{3}
н/о н/о +34.5 +12.7 27 +35 +35 очень
жарко
1010.5 956.9
14 14.10 СВ 2
{3}
н/о н/о +37.5 +13.2 23 +37 +37 очень
жарко
1009.3 956.3
15 14.10 З 1
{3}
н/о н/о +36.2 +11.6 23 +36 +36 очень
жарко
1008.6 955.4
17 14.10 СЗ 1
{3}
н/о н/о +38.9 +12.7 21 +39 +39 очень
жарко
1005.2 952.6
16 14.10 В 1
{4}
н/о н/о +39.6 +12.9 21 +40 +40 очень
душно
1006.4 953.9
18 14.10 С 2
{3}
н/о н/о +40.0 +12.5 20 +40 +40 очень
душно
1003.7 951.4
19 14.10 СВ 1
{3}
н/о н/о +39.8 +12.0 19 +39 +39 очень
жарко
1003.0 950.7
20 14.10 В 1
{3}
н/о н/о +37.0 +13.0 24 +37 +37 очень
жарко
1003.8 951.0
21 14.10 Ю 2
{4}
н/о н/о +34.4 +14.3 30 +36 +36 душно 1005.1 951.8
23 14.10 ЮВ 1
{3}
н/о н/о +32.0 +15.1 36 +34 +34 душно 1007.2 953.4
22 14.10 ЮВ 1
{4}
н/о н/о +33.0 +14.7 33 +35 +35 душно 1006.3 952.7
00 15.10 Ю 1
{3}
н/о н/о +31.9 +15.4 37 +34 +34 душно 1008.3 954.4
01 15.10 ЮВ 1
{3}
н/о н/о +31.4 +16.3 40 +34 +34 душно 1009.1 955.1
02 15.10 СВ 1
{2}
н/о н/о +27.9 +19.2 59 +33 +33 очень
душно
1009.9 955.2
03 15.10 Ю 2
{2}
н/о н/о +29.7 +16.7 46 +33 +33 душно 1009.3 955.0
05 15.10 Ю 1
{3}
н/о н/о +26.8 +19.1 63 +32 +32 очень
душно
1009.8 954.9
04 15.10 ЮЗ 1
{3}
н/о н/о +28.7 +18.0 52 +33 +33 очень
душно
1009.2 954.7
06 15.10 ЮЗ 1
{2}
н/о н/о +26.8 +19.5 64 +32 +32 очень
душно
1010.4 955.5
07 15.10 ЮЗ 1
{2}
н/о н/о +26.3 +19.5 66 +32 +32 очень
душно
1010.8 955.8
08 15.10 З 1
{2}
н/о н/о +25.9 +19.6 68 +31 +31 очень
душно
1011.1 956.0
09 15.10 Ю 1
{2}
н/о н/о +25.4 +19.7 71 +31 +31 очень
душно
1011.3 956.1
11 15.10 ЮВ 1
{2}
н/о н/о +27.1 +20.0 65 +33 +33 очень
душно
1011.4 956.5
10 15.10 ЮВ 1
{1}
н/о н/о +25.5 +20.0 72 +31 +31 очень
душно
1011.7 956.5
12 15.10 ЮВ 1
{3}
н/о н/о +27.6 +20.4 65 +34 +34 очень
душно
1011.7 956.9
13 15.10 ЮВ 1
{2}
н/о н/о +28.5 +21.0 64 +36 +36 очень
душно
1011.5 956.8
14 15.10 В 1
{2}
н/о н/о +30.3 +19.5 52 +36 +36 очень
душно
1010.7 956.4
15 15.10 штиль 0
{2}
н/о н/о +31.2 +18.7 47 +36 +36 очень
душно
1009.8 955.7
17 15.10 СВ 1
{2}
н/о н/о +33.7 +17.7 39 +38 +38 очень
душно
1006.6 953.1
16 15.10 штиль 0
{1}
н/о н/о +32.1 +18.9 46 +37 +37 очень
душно
1008.8 954.9
18 15.10 С 2
{6}
н/о н/о +34.8 +15.1 31 +37 +37 очень
душно
1005.0 951.8
19 15.10 СЗ 1
{3}
н/о н/о +36.2 +15.8 30 +38 +38 очень
душно
1004.0 951.1
20 15.10 С 1
{2}
н/о н/о +35.2 +15.6 31 +37 +37 очень
душно
1004.2 951.1
21 15.10 штиль 0
{2}
н/о н/о +31.3 +17.0 42 +35 +35 очень
душно
1005.4 951.6
23 15.10 СВ 1
{1}
н/о н/о +28.7 +18.6 54 +34 +34 очень
душно
1007.4 953.0
22 15.10 штиль 0
{1}
н/о н/о +29.8 +17.8 49 +34 +34 очень
душно
1006.5 952.3
00 16.10 штиль 0
{1}
н/о н/о +28.5 +18.1 53 +33 +33 очень
душно
1008.2 953.7
01 16.10 СВ 1
{1}
н/о н/о +27.0 +19.4 63 +33 +33 очень
душно
1009.4 954.6
02 16.10 ЮВ 3
{6}
н/о н/о +26.8 +20.0 66 +33 +33 очень
душно
1010.4 955.5
03 16.10 ЮВ 1
{5}
н/о н/о +25.5 +19.5 69 +31 +31 очень
душно
1010.5 955.4
05 16.10 Ю 2
{3}
н/о н/о +24.4 +19.3 73 +29 +29 душно 1009.9 954.6
04 16.10 Ю 2
{3}
н/о н/о +25.1 +19.4 71 +30 +30 душно 1010.0 954.8
06 16.10 Ю 1
{3}
н/о н/о +23.9 +19.1 75 +29 +29 душно 1009.8 954.4
07 16.10 ЮЗ 1
{2}
н/о н/о +23.6 +18.8 74 +28 +28 душно 1010.2 954.7
08 16.10 Ю 1
{2}
н/о н/о +22.6 +18.7 79 +28 +28 душно 1011.0 955.3
09 16.10 штиль 0
{2}
н/о н/о +22.0 +18.8 82 +27 +27 душно 1011.3 955.5
10 16.10 ЮВ 1
{2}
н/о н/о +24.8 +19.3 71 +30 +30 душно 1011.6 956.3

 

Местоположение метеостанции Sao Romao (Бразилия): широта -16.37 долгота -45.12 высота над уровнем моря 462 м.

В архиве по умолчанию представлена погода в Sao Romao за последнюю неделю. Архивные данные за месяц целиком и за предыдущие месяцы, начиная с января 2011 года, Вы можете получить, выбрав интересующий диапазон дат из раскрывающегося списка и нажав кнопку "Ввод!".


*Определитесь, кто Вы:
робот инопланетянин человек

Внимание! Время в таблицах - всемирное. Для получения местного времени необходимо прибавить поправку, которая в Sao Romao равна -3 ч.

Смотрите также архив погоды в соседних городах и на ближайших метеорологических станциях:

Погода в Pirapora (Бразилия) (103 км)
Погода в Pirapora (Бразилия) (108 км)
Погода в Arinos (Бразилия) (112 км)
Погода в Chapada Gaucha (Бразилия) (130 км)
Погода в Januaria (Бразилия) (132 км)
Погода в Montes Claros (Бразилия) (139 км)
Погода в Montes Claros (Бразилия) (140 км)
Погода в Buritis (Бразилия) (169 км)
Погода в Mocambinho (Бразилия) (186 км)
Погода в Unai (Бразилия) (189 км)

Пояснения к столбцам:

Ветер - указаны скорость ветра в м/с - средняя за 10 мин, порывы в срок и между сроками (в фигурных скобках) и направление, откуда дует ветер: С - северный, СВ - северо-восточный, В - восточный, ЮВ - юго-восточный, Ю - южный, ЮЗ - юго-западный, З - западный, СЗ - северо-западный.
Видимость - горизонтальная дальность видимости в метрах или километрах. При видимости от 1 до 10 км при отсутствии осадков обычно наблюдается дымка, при ухудшении видимости до 1 км и менее - туман. В сухую погоду видимость может ухудшаться дымом, пылью или мглою.
Явления - указаны атмосферные явления, наблюдавшиеся в срок или в последний час перед сроком; фигурными скобками обозначены явления, наблюдавшиеся между сроками (за 1-3 часа до срока); квадратными скобками обозначены град или гололедные отложения с указанием их диаметра в мм.
Облачность - указаны через наклонную черту общая и нижняя облачность в баллах и высота нижней границы облаков в метрах; квадратными скобками обозначены формы облаков: Ci - перистые, Cs - перисто-слоистые, Cc - перисто-кучевые, Ac - высококучевые, As - высокослоистые, Sc - слоисто-кучевые, Ns - слоисто-дождевые, Cu - кучевые, Cb - кучево-дождевые. Подробнее классификацию облаков см. в Атласе облаков (PDF).
T - Температура воздуха - температура, измеренная на высоте 2 м над землей.
Td - Температура точки росы - температура, при понижении до которой содержащийся в воздухе водяной пар достигнет насыщения.
f - Относительная влажность воздуха - влажноcть воздуха, измеренная на высоте 2 м над землей.
Te - Эффективная температура - температура, которую ощущает одетый по сезону человек в тени. Характеристика душности погоды. При расчете учитывается влияние влажности воздуха и скорости ветра на теплоощущения человека.
Tes - Эффективная температура на солнце - температура, которую ощущает человек, с поправкой на солнечный нагрев. Характеристика знойности погоды. Зависит от высоты солнца над горизонтом, облачности и скорости ветра. Ночью, в пасмурную погоду, а также при ветре 12 м/с и более поправка равна нулю.
P - Атмосферное давление - приведенное к уровню моря атмосферное давление.
Po - Атмосферное давление - измеренное на уровне метеостанции атмосферное давление.
Tmin - Минимальная температура - минимум температуры воздуха на высоте 2 м над землей.
Tmax - Максимальная температура - максимум температуры воздуха на высоте 2 м над землей.
R - Количество осадков - Количество выпавших осадков за период времени, мм. При наведении курсора мыши на число - период времени, за который выпало указанное количество осадков.
R24 - Количество осадков - Количество выпавших осадков за 24 часа, мм.
S - Снежный покров - Высота снежного покрова, см. При наведении курсора мыши на число - состояние снежного покрова и степень покрытия местности в баллах.